Location: Caltech
(34.1382°N, 118.1253°W)
Time: 16:32:07
(UTC-08:00)

PCSat - Visible Passes

Search period start: 27 February 2015 00:00
Search period end: 09 March 2015 01:00
Orbit: 786 x 795 km, 67.1° (Epoch: 26 February)

Date Brightness Start Highest point End Pass type
(mag) Time Alt. Az. Time Alt. Az. Time Alt. Az.
28 Feb 11.2 05:53:44 10° N 05:58:44 37° ENE 06:03:44 10° SE visible
01 Mar 11.6 05:23:23 10° N 05:27:54 27° NE 05:32:30 10° ESE visible
02 Mar 12.0 04:53:10 10° N 04:57:01 20° NE 05:01:02 10° E visible
02 Mar 11.1 19:30:30 10° S 19:32:21 20° SSE 19:32:21 20° SSE visible
03 Mar 12.3 04:23:12 10° NNE 04:26:05 15° NE 04:29:12 10° E visible
03 Mar 10.5 19:00:30 10° SSE 19:04:45 25° ESE 19:04:46 25° ESE visible
03 Mar 11.4 20:42:59 10° SW 20:45:39 25° WSW 20:45:39 25° WSW visible
04 Mar 12.6 03:54:01 10° NNE 03:55:05 11° NE 03:56:28 10° ENE visible
04 Mar 9.7 05:34:03 10° NNW 05:39:30 80° ENE 05:44:55 10° SSE visible
04 Mar 11.0 18:30:52 10° SE 18:34:11 17° ESE 18:37:25 11° ENE visible
04 Mar 10.3 20:11:58 10° SW 20:17:14 52° WNW 20:18:19 44° NNW visible
05 Mar 10.3 05:03:28 10° NNW 05:08:48 56° ENE 05:14:06 10° SE visible
05 Mar 9.7 19:41:07 10° SSW 19:46:31 73° WNW 19:51:11 14° NNE visible
06 Mar 10.9 04:32:57 10° N 04:38:02 40° ENE 04:43:07 10° SE visible
06 Mar 9.5 19:10:26 10° SSW 19:15:51 80° ESE 19:21:18 10° NNE visible
06 Mar 12.3 20:57:10 10° W 21:00:00 14° NW 21:02:35 10° NNW visible
07 Mar 11.4 04:02:33 10° N 04:07:13 29° NE 04:11:56 10° ESE visible
07 Mar 10.3 05:45:50 10° NW 05:50:39 32° WSW 05:55:22 10° S visible
07 Mar 9.6 18:39:57 10° S 18:45:12 56° ESE 18:50:31 10° NE visible
07 Mar 12.0 20:25:12 10° W 20:29:03 19° NW 20:32:43 10° N visible
08 Mar 11.8 04:32:19 10° N 04:36:21 22° NE 04:40:31 10° ESE visible
08 Mar 9.8 06:14:52 10° NW 06:20:03 46° WSW 06:25:11 10° S visible
08 Mar 10.1 19:09:39 10° S 19:14:36 39° ESE 19:19:37 10° NE visible
08 Mar 11.7 20:53:39 10° WSW 20:58:09 25° NW 21:02:33 10° N visible
